Regional Weather Roundup
Issued by NWS

Home | Current Version | Previous Version | Text Only | Print | Product List | Glossary Off
Versions: 1 2 3 4 5 6 7 8 9 10 11 12 13 14 15 16 17 18 19 20 21 22 23 24 25 26 27 28 29 30 31 32 33 34 35 36 37 38 39 40 41 42 43 44 45 46 47 48 49 50

161
ASUS43 KBIS 250410
RWRND

NORTH DAKOTA REGIONAL WEATHER ROUNDUP
NATIONAL WEATHER SERVICE BISMARCK ND
1100 PM CDT SUN JUL 24 2016

NOTE: "FAIR" INDICATES FEW OR NO CLOUDS BELOW 12,000 FEET WITH NO
SIGNIFICANT WEATHER AND/OR OBSTRUCTIONS TO VISIBILITY.


NDZ001>003-009>011-017-250500-
NORTHWEST NORTH DAKOTA

CITY           SKY/WX    TMP DP  RH WIND       PRES   REMARKS
WILLISTON      CLEAR     68  59  73 N3        29.99R
MINOT          CLEAR     70  59  68 E3        30.00R
MINOT AFB      CLEAR     63  59  88 S2        30.00R
$$

NDZ018>021-031>035-040>046-250500-
SOUTHWEST NORTH DAKOTA

CITY           SKY/WX    TMP DP  RH WIND       PRES   REMARKS
BISMARCK       CLEAR     65  61  87 SE7       30.04R
DICKINSON      CLEAR     64  53  67 SE8       30.03R
GARRISON         N/A     65  61  87 CALM      30.01R
HETTINGER ARPT CLEAR     71  50  47 SE8       30.08R
$$

NDZ004>008-012>016-024-026-027-054-250500-
NORTHEAST NORTH DAKOTA

CITY           SKY/WX    TMP DP  RH WIND       PRES   REMARKS
GRAND FORKS    CLEAR     66  60  81 W7        29.94S
GRND FRKS AFB  CLEAR     66  60  82 W7        29.96R
DEVILS LAKE    CLEAR     66  59  78 W6        30.00R
$$

NDZ022-023-025-028>030-036>039-047>053-250500-
SOUTHEAST NORTH DAKOTA

CITY           SKY/WX    TMP DP  RH WIND       PRES   REMARKS
FARGO          CLEAR     68  60  75 W7        29.98R
JAMESTOWN      CLEAR     65  59  81 S3        30.02R
$$





USA.gov is the U.S. government's official web portal to all federal, state and local government web resources and services.